| time (UTC) | temp F | wind direction | speed MPH | gust MPH | rain 1hr in | rain 24hr in | rain mn in | humidity % | barometer mb |
| 20260905134610 | 71 | 39 | 4.0 | 10.0 | 0.00 | 0.00 | 0.00 | 80 | 1007.6 |
| 20260905133036 | 71 | 37 | 4.0 | 9.0 | 0.00 | 0.00 | 0.00 | 80 | 1007.6 |
| 20260905131505 | 70 | 21 | 5.0 | 11.0 | 0.00 | 0.00 | 0.00 | 80 | 1007.5 |
| 20260905130050 | 70 | 79 | 5.0 | 10.0 | 0.00 | 0.00 | 0.00 | 81 | 1007.5 |
| 20260905124509 | 69 | 34 | 4.0 | 10.0 | 0.00 | 0.00 | 0.00 | 82 | 1007.2 |
| 20260905123043 | 69 | 37 | 6.0 | 13.0 | 0.00 | 0.00 | 0.00 | 82 | 1007.0 |
| 20260905121509 | 68 | 23 | 2.0 | 11.0 | 0.00 | 0.00 | 0.00 | 83 | 1006.8 |
| 20260905120048 | 67 | 23 | 5.0 | 10.0 | 0.00 | 0.00 | 0.00 | 84 | 1006.8 |
| 20260905114516 | 66 | 14 | 2.0 | 9.0 | 0.00 | 0.00 | 0.00 | 86 | 1006.9 |
| 20260905113101 | 66 | 10 | 4.0 | 10.0 | 0.00 | 0.00 | 0.00 | 86 | 1006.8 |
| 20260905111551 | 65 | 45 | 2.0 | 10.0 | 0.00 | 0.00 | 0.00 | 87 | 1006.7 |
| 20260905110004 | 65 | 8 | 4.0 | 11.0 | 0.00 | 0.00 | 0.00 | 88 | 1006.7 |
| 20260905104534 | 64 | 29 | 4.0 | 11.0 | 0.00 | 0.00 | 0.00 | 88 | 1006.6 |
| 20260905103002 | 64 | 8 | 4.0 | 9.0 | 0.00 | 0.00 | 0.00 | 88 | 1006.4 |
| 20260905101544 | 64 | 33 | 4.0 | 10.0 | 0.00 | 0.00 | 0.00 | 88 | 1006.1 |
| 20260905100018 | 64 | 2 | 5.0 | 11.0 | 0.00 | 0.00 | 0.00 | 88 | 1006.0 |
| 20260905094550 | 65 | 3 | 5.0 | 11.0 | 0.00 | 0.00 | 0.00 | 87 | 1005.9 |
| 20260905093009 | 65 | 38 | 5.0 | 9.0 | 0.00 | 0.00 | 0.00 | 88 | 1005.9 |
| 20260905091539 | 65 | 25 | 4.0 | 11.0 | 0.00 | 0.00 | 0.00 | 87 | 1006.0 |
| 20260905090110 | 65 | 23 | 4.0 | 9.0 | 0.00 | 0.00 | 0.00 | 87 | 1006.1 |
| 20260905084529 | 65 | 1 | 3.0 | 9.0 | 0.00 | 0.00 | 0.00 | 87 | 1006.1 |
| 20260905083057 | 66 | 15 | 3.0 | 10.0 | 0.00 | 0.00 | 0.00 | 86 | 1006.1 |
| 20260905081529 | 66 | 35 | 3.0 | 9.0 | 0.00 | 0.00 | 0.00 | 86 | 1006.1 |
| 20260905080003 | 66 | 18 | 3.0 | 11.0 | 0.00 | 0.00 | 0.00 | 86 | 1006.0 |
| 20260905074545 | 66 | 10 | 2.0 | 7.0 | 0.00 | 0.00 | 0.00 | 85 | 1006.1 |
| 20260905070031 | 66 | 16 | 4.0 | 11.0 | 0.00 | 0.00 | 0.00 | 84 | 1006.5 |
| 20260905064502 | 67 | 351 | 3.0 | 8.0 | 0.00 | 0.00 | 0.00 | 84 | 1006.6 |
| 20260905063042 | 68 | 8 | 2.0 | 8.0 | 0.00 | 0.00 | 0.00 | 83 | 1006.9 |
| 20260905061511 | 68 | 29 | 2.0 | 8.0 | 0.00 | 0.00 | 0.00 | 81 | 1006.9 |
| 20260905060053 | 68 | 335 | 1.0 | 6.0 | 0.00 | 0.00 | 0.00 | 82 | 1006.9 |
| 20260905054539 | 68 | 357 | 1.0 | 6.0 | 0.00 | 0.00 | 0.00 | 82 | 1006.9 |
| 20260905053140 | 68 | 9 | 1.0 | 6.0 | 0.00 | 0.00 | 0.00 | 82 | 1006.9 |
| 20260905051519 | 68 | 18 | 1.0 | 5.0 | 0.00 | 0.00 | 0.00 | 82 | 1006.8 |
| 20260905050051 | 68 | 5 | 0.0 | 4.0 | 0.00 | 0.00 | 0.00 | 82 | 1007.2 |
| 20260905044522 | 68 | 341 | 1.0 | 4.0 | 0.00 | 0.00 | 0.00 | 82 | 1007.1 |
| 20260905043100 | 68 | 341 | 0.0 | 5.0 | 0.00 | 0.00 | 0.00 | 83 | 1007.1 |
| 20260905041533 | 68 | 337 | 0.0 | 4.0 | 0.00 | 0.00 | 0.00 | 85 | 1007.3 |
| 20260905040110 | 68 | 336 | 1.0 | 4.0 | 0.00 | 0.00 | 0.00 | 87 | 1007.1 |
| 20260905034542 | 68 | 333 | 0.0 | 1.0 | 0.00 | 0.00 | 0.00 | 88 | 1007.2 |
| 20260905030033 | 70 | 166 | 0.0 | 0.0 | 0.00 | 0.00 | 0.00 | 92 | 1006.7 |
| 20260905024510 | 70 | 164 | 0.0 | 0.0 | 0.00 | 0.00 | 0.00 | 92 | 1006.6 |
| 20260905023041 | 70 | 164 | 0.0 | 0.0 | 0.00 | 0.00 | 0.00 | 92 | 1006.7 |
| 20260905021506 | 70 | 179 | 0.0 | 0.0 | 0.00 | 0.00 | 0.00 | 92 | 1006.6 |
| 20260905020036 | 70 | 179 | 0.0 | 0.0 | 0.00 | 0.00 | 0.00 | 92 | 1006.9 |
| 20260905014501 | 70 | 179 | 0.0 | 0.0 | 0.00 | 0.00 | 0.00 | 91 | 1007.1 |
| 20260905013047 | 70 | 179 | 0.0 | 0.0 | 0.00 | 0.00 | 0.00 | 91 | 1007.2 |
| 20260905011515 | 71 | 179 | 0.0 | 0.0 | 0.00 | 0.00 | 0.00 | 90 | 1007.3 |
| 20260905004533 | 71 | 179 | 0.0 | 6.0 | 0.00 | 0.00 | 0.00 | 91 | 1007.4 |
| 20260905003104 | 72 | 146 | 1.0 | 3.0 | 0.00 | 0.00 | 0.00 | 91 | 1007.1 |
| 20260905001535 | 72 | 134 | 2.0 | 6.0 | 0.00 | 0.00 | 0.00 | 91 | 1007.0 |
| 20260905000000 | 71 | 173 | 0.0 | 0.0 | 0.00 | 0.00 | 0.00 | 90 | 1006.6 |
| 20260904234531 | 72 | 173 | 0.0 | 1.0 | 0.00 | 0.00 | 0.00 | 90 | 1006.6 |
| 20260904224520 | 74 | 143 | 3.0 | 7.0 | 0.00 | 0.00 | 0.00 | 87 | 1006.6 |
| 20260904223103 | 75 | 119 | 2.0 | 6.0 | 0.00 | 0.00 | 0.00 | 87 | 1006.4 |
| 20260904221530 | 76 | 176 | 0.0 | 3.0 | 0.00 | 0.00 | 0.00 | 83 | 1006.1 |
| 20260904220113 | 78 | 174 | 1.0 | 4.0 | 0.00 | 0.00 | 0.00 | 81 | 1006.2 |
| 20260904214542 | 78 | 173 | 1.0 | 5.0 | 0.00 | 0.00 | 0.00 | 82 | 1006.0 |
| 20260904213004 | 78 | 189 | 1.0 | 6.0 | 0.00 | 0.00 | 0.00 | 82 | 1005.9 |
| 20260904211534 | 78 | 133 | 1.0 | 5.0 | 0.00 | 0.00 | 0.00 | 81 | 1006.1 |
| 20260904210003 | 78 | 196 | 3.0 | 6.0 | 0.00 | 0.00 | 0.00 | 80 | 1006.2 |
| 20260904204539 | 78 | 168 | 0.0 | 6.0 | 0.00 | 0.00 | 0.00 | 80 | 1006.4 |
| 20260904194601 | 80 | 156 | 2.0 | 6.0 | 0.00 | 0.00 | 0.00 | 74 | 1006.2 |
| 20260904193115 | 81 | 189 | 1.0 | 7.0 | 0.00 | 0.00 | 0.00 | 74 | 1006.4 |
| 20260904191532 | 81 | 164 | 2.0 | 6.0 | 0.00 | 0.00 | 0.00 | 71 | 1006.4 |
| 20260904190115 | 82 | 190 | 2.0 | 5.0 | 0.00 | 0.00 | 0.00 | 72 | 1006.3 |
| 20260904184529 | 82 | 124 | 3.0 | 7.0 | 0.00 | 0.00 | 0.00 | 73 | 1006.2 |
| 20260904183102 | 82 | 202 | 5.0 | 8.0 | 0.00 | 0.00 | 0.00 | 73 | 1006.3 |
| 20260904181523 | 81 | 124 | 2.0 | 7.0 | 0.00 | 0.00 | 0.00 | 75 | 1006.2 |
| 20260904180100 | 81 | 191 | 1.0 | 8.0 | 0.00 | 0.00 | 0.00 | 78 | 1006.5 |
| 20260904174525 | 79 | 187 | 0.0 | 7.0 | 0.00 | 0.00 | 0.00 | 79 | 1006.7 |
| 20260904173126 | 80 | 146 | 1.0 | 6.0 | 0.00 | 0.00 | 0.00 | 79 | 1006.8 |
| 20260904171538 | 78 | 181 | 2.0 | 8.0 | 0.00 | 0.00 | 0.00 | 81 | 1006.8 |
| 20260904170113 | 78 | 89 | 5.0 | 8.0 | 0.00 | 0.00 | 0.00 | 80 | 1006.8 |
| 20260904164527 | 77 | 114 | 5.0 | 8.0 | 0.00 | 0.00 | 0.00 | 82 | 1006.9 |
| 20260904163053 | 77 | 105 | 3.0 | 10.0 | 0.00 | 0.00 | 0.00 | 86 | 1006.9 |
| 20260904161519 | 76 | 156 | 4.0 | 9.0 | 0.00 | 0.00 | 0.00 | 86 | 1007.1 |
| 20260904160047 | 76 | 166 | 5.0 | 9.0 | 0.00 | 0.00 | 0.00 | 87 | 1007.0 |
| 20260904154509 | 77 | 78 | 2.0 | 8.0 | 0.00 | 0.00 | 0.00 | 86 | 1007.2 |
| 20260904153046 | 76 | 76 | 3.0 | 9.0 | 0.00 | 0.00 | 0.00 | 85 | 1007.2 |
| 20260904151510 | 81 | 14 | 1.0 | 7.0 | 0.00 | 0.00 | 0.00 | 72 | 1007.2 |
| 20260904144510 | 80 | 359 | 2.0 | 7.0 | 0.00 | 0.00 | 0.00 | 75 | 1007.5 |
| 20260904143038 | 79 | 273 | 0.0 | 6.0 | 0.00 | 0.00 | 0.00 | 83 | 1007.5 |
| 20260904141617 | 77 | 273 | 2.0 | 6.0 | 0.00 | 0.00 | 0.00 | 86 | 1007.6 |
| 20260904140039 | 76 | 241 | 3.0 | 8.0 | 0.00 | 0.00 | 0.00 | 88 | 1007.6 |